map of TKD home
TKD - Airport
Location
City:  Takoradi, Ghana
ICAO:DGTK
IATA:TKD

Details
Type:Airport (Aerodrome, Airfield)
Use:Military
Latitude:453'46"N (4.896056)
Longitude:146'29"W (-1.774755)
Datum:WGS 1984
Elevation:21 ft (6 m)
Variation:3.79W (WMM2015v2 magnetic declination)
0.14 annual change
Runways:1
Longest:5745 × 148 ft (1751 × 45 m), paved

Time
Time Zone:UTC+0
Local Time:

Weather
TAF:DGTK 041130Z 0412/0518 23005G15KT 9999 SCT015
TEMPO 0413/0415 TS FEW030CB
BECMG 0500/0503 00000KT
TEMPO 0505/0508 VRB02KT 4000 BR

Related Locations
Nearby:
Farthest:AIS: 12250 mi / 19714 km
Arorae Island, G, KI

Find:

   beyond  
but within

Other Information
Maps:
NOTAMs:
Links:
Sources:

  
  • flag of Ghana
  

Sectional Chart

Flight Planning
at skyvector.com

Satellite Image

Google Maps Satellite view

 

Copyright © 2004-2019 Karl L. Swartz. All rights reserved.
The Great Circle Mapper name and logo are trademarks of the Great Circle Mapper.
All other trademarks mentioned herein belong to their respective owners.
Please see credits for attibutions and further copyright information.

  Follow gcmap on Facebook Follow gcmap on Twitter GCmap on LinkedIn

hCard Microformat

Geo Microformat